Regional Weather Roundup
Issued by NWS

Home | Current Version | Previous Version | Text Only | Print | Product List | Glossary Off
Versions: 1 2 3 4 5 6 7 8 9 10 11 12 13 14 15 16 17 18 19 20 21 22 23 24 25 26 27 28 29 30 31 32 33 34 35 36 37 38 39 40 41 42 43 44 45 46 47 48 49

000
ASUS45 KSLC 021010
RWRUT

UTAH REGIONAL WEATHER ROUNDUP
NATIONAL WEATHER SERVICE SALT LAKE CITY UT
400 AM MDT WED SEP 02 2015

UTZ001>011-023>025-021100-

NORTHERN UTAH

CITY           SKY/WX    TMP DP  RH WIND       PRES   REMARKS
BRIGHAM CITY     N/A     80  30  16 S15G21    29.94R
HILL AFB       CLOUDY    77  39  25 S15       30.00R
LOGAN          CLEAR     72  36  26 SE13      29.94R
OGDEN            N/A     78  39  24 S14       29.96R
PROVO AIRPORT    N/A     64  43  45 S8        30.05R
SALT LAKE CITY MOCLDY    77  41  27 S20G28    29.95R
VERNAL         CLEAR     57  44  62 CALM      30.14S
WENDOVER         N/A     79  28  15 S13       29.93R
HEBER CITY       N/A     57  43  58 CALM      30.13R
WEST JORDAN    CLEAR     73  45  35 S16       30.02R

$$

UTZ012>022-026-027-021100-

SOUTHERN/CENTRAL UTAH

CITY           SKY/WX    TMP DP  RH WIND       PRES   REMARKS
BLANDING         N/A     64  46  52 N3        30.26S
BRYCE CANYON     N/A     46  40  79 W3        30.32R
CEDAR CITY       N/A     65  43  44 S9        30.15R
DELTA            N/A     65  37  35 S10       30.06R
HANKSVILLE       N/A     57  52  82 CALM      30.11R
MILFORD          N/A     67  41  38 S12       30.09R
MOAB/CYNLANDS  CLEAR     62  55  77 S3        30.09R
PRICE            N/A     57  44  62 N9        30.18S
ST GEORGE        N/A     77  46  33 E14       29.98S
KANAB            N/A     61  55  82 NE6       30.20R

$$

REGIONAL REPORTS     COLORADO/ARIZONA

CITY           SKY/WX    TMP DP  RH WIND       PRES   REMARKS
CRAIG, CO      CLEAR     44  40  85 W5        30.23R
GRAND JUNCTION MOCLDY    64  50  60 E10       30.14R
RIFLE          PTCLDY    54  50  86 S3        30.23S
MONTROSE       CLEAR     57  49  74 CALM      30.23S
CORTEZ         PTCLDY    56  45  66 NE3       30.22R
PAGE, AZ         N/A     71  51  49 W3        30.08R
GRAND CANYON     N/A     50  48  93 CALM      30.28S
KINGMAN          N/A     74  50  42 SE10      30.03R
FLAGSTAFF        N/A     50  47  89 CALM      30.32R

$$

REGIONAL REPORTS    NEVADA/IDAHO/WYOMING

CITY           SKY/WX    TMP DP  RH WIND       PRES   REMARKS
LAS VEGAS, NV  MOCLDY    86  55  34 S7        29.86R
ELY              N/A     61  36  39 SW10      30.14S
ELKO             N/A     56  28  34 N3        30.00R
POCATELLO, ID  CLEAR     70  39  32 SW12      29.88R
BURLEY           N/A     54  43  66 SW7       29.86R
EVANSTON, WY   MOCLDY    58  38  47 S10       30.18R
ROCK SPRINGS   MOCLDY    57  42  57 S3        30.17R
KEMMERER       PTCLDY    57  36  44 CALM      30.18S

$$



USA.gov is the U.S. government's official web portal to all federal, state and local government web resources and services.